Terug naar catalogus

TIANHUI 2-01B

ActiefWetenschapSSO
NORAD 44209·PAYLOAD·🇨🇳 China

Gelanceerd Apr 29, 2019 vanaf Taiyuan Satellite Launch Center

Loading…

Volgende Passages (komende 24 uur)

TLE

VersSource: Space-Track

Epoch: Sep 14, 2026, 11:40 UTC

1 44209U 19024C   26257.48631398  .00001263  00000-0  67794-4 0  9998
2 44209  97.4846 260.2513 0001993  93.0205 267.1257 15.16747997408243

Volg TIANHUI 2-01B in realtime met AllMySat

Download on the App Store